Location: Marne
(34.0056°N, 117.9064°W)
Time: 14:58:44
(UTC+00:00)

Cosmos 2322 - Pass Details

Date: 18 January 2020
Orbit: 842 x 853 km, 71.0° (Epoch: 22 February)

Event Time Altitude Azimuth Distance (km) Brightness Sun altitude
Rises 01:59:26 0° 338° (NNW) 3,402 6.9 -10.9°
Reaches altitude 10° 02:01:53 10° 337° (NNW) 2,464 6.2 -11.4°
Maximum altitude 02:07:32 83° 252° (WSW) 854 3.8 -12.5°
Drops below altitude 10° 02:13:11 10° 164° (SSE) 2,456 6.1 -13.7°
Sets 02:15:37 0° 163° (SSE) 3,389 6.8 -14.1°
